Lid_Strength_Index
1 1 0 0 0 -0 -0 -0 -0 -1 -1 -1 -1 -1 -1 -0 0 3 8 4 3 -2 0 6 7 7 7 8 8 10 14 16 14 14 13 11 11 10 11 12 11 10 10 10 8
1 1 1 0 0 0 -0 -0 -1 -1 -1 -1 -1 -0 -0 -0 4 6 1 -2 -3 -2 6 8 9 8 10 9 9 12 15 14 12 12 12 11 12 11 11 11 12 12 10 9 8
0 1 1 0 0 0 -0 -0 -0 -1 -1 -1 -0 -0 -0 1 7 8 -1 -2 -2 -1 5 6 7 8 11 10 10 11 14 12 11 11 11 11 11 11 12 11 11 11 10 10 10
0 0 0 0 0 0 -0 -0 -1 -1 -1 -1 -0 -0 0 4 12 6 -1 -2 -2 3 6 7 9 10 12 12 10 11 10 11 10 10 11 11 10 11 11 10 10 10 10 11 12
0 0 0 0 0 0 -0 -0 -1 -1 -1 -0 -0 0 4 9 8 2 -1 -1 4 5 7 8 10 10 12 12 12 12 12 11 10 10 11 10 10 12 11 10 10 11 11 11 12
0 1 1 1 1 0 0 -0 -1 -1 -1 0 0 1 8 11 3 1 2 4 5 6 8 8 9 9 11 12 12 12 12 11 11 11 11 12 13 13 11 12 11 11 12 12 12
0 0 0 1 0 0 -0 -0 -1 -1 -0 -0 0 2 7 9 3 2 3 5 5 7 8 8 8 10 11 12 11 12 13 12 12 12 12 12 14 13 11 11 12 13 13 13 13
1 2 2 2 1 1 0 0 -0 -0 1 1 0 5 9 6 5 4 5 7 6 7 7 8 8 9 10 10 12 14 15 16 13 13 13 13 15 11 11 12 13 14 15 14 14
1 1 1 2 2 1 1 1 1 0 1 1 5 8 10 5 8 7 7 8 7 8 8 7 8 11 11 15 16 16 18 17 14 12 13 14 15 12 12 12 14 15 15 15 15
2 2 2 1 1 1 0 -0 1 2 2 2 3 9 8 10 8 8 9 8 9 10 10 11 13 14 15 16 18 18 18 17 16 14 14 15 15 13 13 14 15 16 16 16 16
2 2 2 2 2 1 2 4 6 7 6 8 9 10 9 9 8 9 9 9 10 12 14 13 16 17 16 15 16 17 18 18 16 14 15 15 15 15 14 15 16 16 16 16 16
2 2 2 2 1 1 3 6 7 7 9 6 7 9 8 9 11 10 9 12 12 15 14 16 17 14 14 15 16 17 18 17 15 14 15 15 15 16 15 16 16 16 16 16 16
2 2 2 2 1 2 5 5 6 7 11 9 8 8 8 8 9 10 10 12 14 15 15 16 14 13 14 15 16 16 17 17 16 16 16 17 17 16 16 15 15 15 15 15 15
3 3 2 1 3 4 6 5 6 7 13 12 10 9 10 8 11 10 10 12 14 15 15 16 14 14 15 15 14 17 14 15 16 17 19 17 20 17 16 16 16 16 16 16 16
3 3 3 2 5 5 4 6 6 8 19 11 12 10 10 10 12 13 11 12 14 14 14 15 15 15 15 14 13 15 15 15 16 18 19 19 20 18 16 18 17 16 15 15 15
3 3 3 3 4 4 5 6 6 13 19 14 13 14 14 14 13 13 13 12 12 14 15 14 14 14 13 14 13 13 15 16 17 18 21 18 18 19 17 16 16 16 15 15 15
3 3 3 2 5 4 5 6 13 18 12 15 16 15 15 16 15 14 15 15 16 17 17 16 15 14 13 14 15 15 16 19 21 22 21 18 19 17 16 15 14 15 15 15 15
3 3 3 2 3 5 5 9 17 13 13 13 14 15 16 15 15 15 15 16 15 15 17 17 17 14 13 14 15 16 15 19 25 23 21 17 18 16 15 15 14 14 15 15 16
3 3 3 2 4 4 7 15 15 12 11 14 14 16 16 14 15 15 16 16 14 14 15 16 16 15 14 14 13 16 17 15 18 24 21 18 17 16 16 16 15 15 16 15 14
5 5 5 2 3 5 10 13 12 9 10 12 15 14 17 14 14 16 16 14 13 13 12 14 17 15 15 13 15 15 14 17 18 25 26 20 18 17 17 16 16 15 15 14 14
7 9 6 3 4 7 13 12 10 10 10 11 13 13 13 13 13 16 15 13 13 14 12 13 15 17 15 15 15 16 17 16 15 18 23 24 20 15 14 14 15 14 14 13 13
8 11 6 5 10 10 12 11 10 11 10 10 11 12 13 13 14 13 13 12 12 11 13 13 15 19 16 15 14 15 15 15 16 19 18 17 18 13 13 13 13 13 12 13 13
9 10 7 7 12 13 12 11 10 11 11 11 11 11 11 12 14 14 14 12 12 12 12 12 16 22 19 17 16 16 14 14 14 16 20 20 18 13 14 13 13 13 12 12 12
10 13 11 10 10 13 13 13 13 11 12 11 11 11 13 14 11 14 14 12 12 12 10 10 16 18 18 18 16 17 15 14 17 21 19 16 16 15 14 13 13 12 12 12 12
11 12 12 14 13 12 12 13 14 15 12 12 13 12 13 15 15 15 14 14 13 11 13 13 17 17 17 17 17 16 17 16 17 16 18 16 16 14 12 12 12 12 13 12 13
12 14 13 14 11 12 12 14 14 12 13 13 14 13 12 13 13 15 14 14 15 15 14 15 20 18 17 17 16 16 16 16 15 15 16 15 15 11 13 12 13 13 13 12 13
12 12 12 13 13 13 14 13 13 11 12 12 12 13 13 12 12 13 13 13 13 14 15 17 18 19 18 19 20 21 20 17 16 15 14 16 13 17 15 14 14 13 14 12 12